Location: Melizzano
(41.1500°N, 14.5000°E)
Time: 23:11:06
(UTC+00:00)

Resurs 01 Rocket - Pass Details

Date: 11 May 2021
Orbit: 634 x 644 km, 97.9° (Epoch: 24 June)

Event Time Altitude Azimuth Distance (km) Brightness Sun altitude
Exits shadow 20:02:15 19° 190° (S) 1,507 3.2 -18.1°
Maximum altitude 20:05:11 51° 260° (W) 810 2.3 -18.4°
Drops below altitude 10° 20:09:32 10° 337° (NNW) 2,045 5.3 -19.0°
Sets 20:11:48 0° 342° (NNW) 2,957 6.2 -19.3°
